{"data":{"norad_id":49196,"intl_designator":"2021-083L","name":"ONEWEB-0327","alt_names":[],"object_type":"PAYLOAD","status":"ACTIVE","operator":null,"country":"UK","launch_date":"2021-09-14","launch_site_code":"TYMSC","launch_vehicle":null,"mission":null,"orbit_class":"UNKNOWN","rcs_meters":null,"size_class":null,"mass_kg":null,"dimensions":null,"purposes":["comms"],"wikipedia_slug":null,"has_3d_model":false,"image_url":null,"decayed_at":null,"tle_current":{"epoch":"2026-05-25T02:05:30.293952Z","epoch_age_seconds":60811,"freshness":"FRESH","line1":"1 49196U 21083L   26145.08715618  .00000001  00000+0 -30235-4 0  9995","line2":"2 49196  87.9161 340.0588 0002221  85.6212 274.5174 13.18685789226974","mean_motion":13.18685789,"eccentricity":0.0002221,"inclination_deg":87.9161,"raan_deg":340.0588,"arg_perigee_deg":85.6212,"mean_anomaly_deg":274.5174,"bstar":-3.0235e-5,"rev_number":22697,"period_min":109.19962981416,"perigee_km":1188.0631077913,"apogee_km":1191.4247605023,"semimajor_km":7567.8809341468,"source":"CELESTRAK","updated_at":"2026-05-25T13:38:22.490932Z"}}}